Change the Weather History Date:

Thursday, April 18, 2013

  Actual Average Record
Temperature  
Mean Temperature 60 °F 64 °F  
Max Temperature 76 °F 76 °F 94 °F (2006)
Min Temperature 44 °F 53 °F 36 °F (1921)
Degree Days  
Heating Degree Days 5 3  
Month to date heating degree days 95 84  
Since 1 July heating degree days 2431 2578  
Cooling Degree Days 0 3  
Month to date cooling degree days 57 35  
Year to date cooling degree days 72 58  
Growing Degree Days 10 (Base 50)    
Moisture  
Dew Point 56 °F    
Average Humidity 80    
Maximum Humidity 100    
Minimum Humidity 60    
Precipitation  
Precipitation 0.95 in 0.13 in 1.72 in (2009)
Month to date precipitation 2.45 2.22  
Year to date precipitation 10.50 13.81  
Snow  
Snow 0.00 in - - ()
Month to date snowfall 0.0  
Since 1 July snowfall 2.1  
Snow Depth 0.00 in    
Sea Level Pressure  
Sea Level Pressure 29.78 in    
Wind  
Wind Speed 14 mph (West)    
Max Wind Speed 24 mph    
Max Gust Speed 36 mph    
Visibility 7 miles    
Events Fog , Rain    
T = Trace of Precipitation, MM = Missing Value Source: NWS Daily Summary

Daily Weather History Graph

Daily Weather History Graph

Search for Another Location

Airport or City:

Trip Planner

Search our weather history database for the weather conditions in past years. The results will help you decide how hot, cold, wet, or windy it might be!

Date:

Astronomy

Apr. 18, 2013 Rise Set
Actual Time 6:41 AM CDT 7:49 PM CDT
Civil Twilight 6:16 AM CDT 8:14 PM CDT
Nautical Twilight 5:45 AM CDT 8:45 PM CDT
Astronomical Twilight 5:13 AM CDT 9:17 PM CDT
Moon 12:57 PM CDT (4/18) 2:00 AM CDT (4/18)
Length of Visible Light 13h 58m
Length of Day
13h 07m
First Quarter, 52% of the Moon is Illuminated
Apr 18
First Quarter
Apr 25
Full
May 2
Last Quarter
May 9
New
May 17
First Quarter

Hourly Weather History & Observations

Time (CDT) Temp. Windchill Dew Point Humidity Pressure Visibility Wind Dir Wind Speed Gust Speed Precip Events Conditions
12:53 AM 75.9 °F - 68.0 °F 76% 29.73 in 10.0 mi South 16.1 mph 27.6 mph N/A   Overcast
1:53 AM 75.9 °F - 66.9 °F 74% 29.72 in 10.0 mi South 20.7 mph 31.1 mph N/A   Overcast
2:53 AM 75.9 °F - 66.9 °F 74% 29.68 in 10.0 mi South 12.7 mph 26.5 mph N/A   Overcast
3:05 AM 75.2 °F - 66.2 °F 73% 29.70 in 10.0 mi South 18.4 mph 28.8 mph N/A   Overcast
3:13 AM 75.2 °F - 66.2 °F 73% 29.69 in 10.0 mi South 17.3 mph 27.6 mph N/A   Overcast
3:23 AM 75.2 °F - 66.2 °F 73% 29.69 in 10.0 mi South 19.6 mph 27.6 mph N/A   Overcast
3:53 AM 75.0 °F - 66.9 °F 76% 29.65 in 10.0 mi South 18.4 mph 27.6 mph N/A   Overcast
4:19 AM 75.2 °F - 66.2 °F 73% 29.66 in 10.0 mi South 16.1 mph 29.9 mph N/A   Overcast
4:35 AM 75.2 °F - 66.2 °F 73% 29.66 in 10.0 mi South 19.6 mph 28.8 mph N/A   Mostly Cloudy
4:53 AM 75.0 °F - 66.0 °F 73% 29.64 in 10.0 mi South 16.1 mph 26.5 mph N/A   Mostly Cloudy
5:53 AM 75.0 °F - 66.0 °F 73% 29.63 in 10.0 mi South 17.3 mph 29.9 mph N/A   Scattered Clouds
6:53 AM 75.0 °F - 66.0 °F 73% 29.65 in 10.0 mi South 19.6 mph 27.6 mph N/A   Mostly Cloudy
7:42 AM 75.2 °F - 66.2 °F 73% 29.72 in 10.0 mi SSW 13.8 mph - N/A   Overcast
7:53 AM 75.0 °F - 66.9 °F 76% 29.72 in 10.0 mi SSW 12.7 mph 19.6 mph N/A   Overcast
8:01 AM 75.2 °F - 66.2 °F 73% 29.73 in 10.0 mi SSW 12.7 mph 18.4 mph N/A   Overcast
8:53 AM 75.0 °F - 66.9 °F 76% 29.72 in 9.0 mi SSW 11.5 mph - 0.00 in Rain Light Rain
9:53 AM 75.0 °F - 68.0 °F 79% 29.70 in 9.0 mi South 16.1 mph 20.7 mph 0.00 in Rain Light Rain
10:06 AM 66.2 °F - 64.4 °F 94% 29.72 in 2.0 mi WNW 11.5 mph 28.8 mph 0.05 in Rain Heavy Rain
10:10 AM 66.2 °F - 64.4 °F 94% 29.73 in 1.2 mi West 8.1 mph 25.3 mph 0.08 in Rain Heavy Rain
10:18 AM 64.4 °F - 64.4 °F 100% 29.74 in 0.5 mi WSW 9.2 mph - 0.22 in Fog , Rain Heavy Rain
10:33 AM 66.2 °F - 64.4 °F 94% 29.75 in 1.8 mi West 4.6 mph - 0.40 in Rain Light Rain
10:35 AM 66.2 °F - 64.4 °F 94% 29.74 in 3.0 mi West 6.9 mph - 0.40 in Rain Light Rain
10:43 AM 66.2 °F - 64.4 °F 94% 29.75 in 7.0 mi West 13.8 mph 19.6 mph 0.41 in Rain Light Rain
10:53 AM 64.9 °F - 64.0 °F 97% 29.73 in 2.0 mi NW 18.4 mph 23.0 mph 0.44 in Rain Heavy Rain
11:07 AM 57.2 °F - 57.2 °F 100% 29.75 in 5.0 mi WNW 19.6 mph 28.8 mph 0.03 in Rain Light Rain
11:21 AM 55.4 °F - 53.6 °F 94% 29.78 in 1.8 mi West 15.0 mph 25.3 mph 0.10 in Rain Heavy Rain
11:29 AM 55.4 °F - 53.6 °F 94% 29.75 in 1.2 mi WNW 10.4 mph 21.9 mph 0.18 in Rain Heavy Rain
11:33 AM 55.4 °F - 53.6 °F 94% 29.75 in 2.0 mi NW 6.9 mph - 0.19 in Rain Rain
11:43 AM 55.4 °F - 53.6 °F 94% 29.76 in 4.0 mi WNW 12.7 mph 18.4 mph 0.21 in Rain Rain
11:53 AM 54.0 °F - 53.1 °F 97% 29.75 in 10.0 mi WNW 12.7 mph 21.9 mph 0.21 in Rain Light Rain
12:53 PM 51.1 °F - 50.0 °F 96% 29.81 in 5.0 mi West 18.4 mph 26.5 mph 0.02 in Rain Rain
1:16 PM 50.0 °F - 48.2 °F 94% 29.81 in 6.0 mi WNW 20.7 mph 27.6 mph 0.04 in Rain Rain
1:27 PM 48.2 °F - 48.2 °F 100% 29.83 in 2.5 mi West 20.7 mph 26.5 mph 0.10 in Rain Heavy Rain
1:34 PM 48.2 °F - 48.2 °F 100% 29.81 in 3.0 mi WNW 16.1 mph 26.5 mph 0.12 in Rain Rain
1:53 PM 48.9 °F - 48.0 °F 97% 29.77 in 4.0 mi NW 9.2 mph 17.3 mph 0.15 in Rain Rain
2:00 PM 48.2 °F - 48.2 °F 100% 29.80 in 3.0 mi NW 13.8 mph 19.6 mph 0.02 in Rain Rain
2:13 PM 48.2 °F - 48.2 °F 100% 29.88 in 10.0 mi WSW 16.1 mph 21.9 mph 0.02 in Rain Light Rain
2:20 PM 48.2 °F - 48.2 °F 100% 29.88 in 5.0 mi West 19.6 mph 28.8 mph 0.04 in Rain Rain
2:25 PM 48.2 °F - 46.4 °F 93% 29.86 in 1.8 mi West 15.0 mph 28.8 mph 0.07 in Rain Heavy Rain
2:32 PM 48.2 °F - 46.4 °F 93% 29.82 in 2.0 mi NW 19.6 mph 27.6 mph 0.11 in Rain Heavy Rain
2:41 PM 48.2 °F - 48.2 °F 100% 29.80 in 7.0 mi NW 20.7 mph 29.9 mph 0.12 in Rain Light Rain
2:53 PM 48.9 °F - 46.9 °F 93% 29.81 in 10.0 mi WNW 11.5 mph 24.2 mph 0.12 in Rain Light Rain
3:07 PM 48.2 °F - 48.2 °F 100% 29.83 in 10.0 mi WNW 11.5 mph 21.9 mph 0.00 in Rain Light Rain
3:53 PM 48.9 °F - 46.0 °F 90% 29.83 in 10.0 mi WNW 19.6 mph 24.2 mph 0.00 in   Overcast
4:53 PM 48.9 °F - 45.0 °F 86% 29.86 in 10.0 mi NW 16.1 mph - 0.00 in   Overcast
5:53 PM 48.9 °F - 42.1 °F 77% 29.88 in 10.0 mi NW 18.4 mph 25.3 mph 0.01 in   Mostly Cloudy
6:53 PM 48.9 °F - 44.1 °F 83% 29.89 in 10.0 mi NW 10.4 mph - 0.00 in   Overcast
7:53 PM 48.9 °F - 44.1 °F 83% 29.92 in 10.0 mi NNW 5.8 mph - N/A   Mostly Cloudy
8:53 PM 48.0 °F - 39.0 °F 71% 29.96 in 10.0 mi NNW 12.7 mph - N/A   Partly Cloudy
9:53 PM 46.9 °F - 37.9 °F 71% 30.01 in 10.0 mi NW 8.1 mph - N/A   Overcast
10:53 PM 46.9 °F - 36.0 °F 66% 30.04 in 10.0 mi NW 12.7 mph 19.6 mph N/A   Overcast
11:53 PM 46.0 °F 39.6 °F 34.0 °F 63% 30.06 in 10.0 mi NW 15.0 mph 20.7 mph N/A   Overcast